RH
7 7 7 7 7 8 8 8 8 8 7 7 7 7 8 10 13 17 22 27 33 40 45 48 54 63 70 76 81 86 88 89 92 92 91 91 87 82 78 72 66 62
8 8 8 10 11 11 11 11 10 10 11 12 14 17 20 24 29 35 42 48 54 61 66 69 73 79 84 88 91 93 94 95 97 98 98 99 97 94 90 84 77 72
10 10 12 16 20 22 24 23 20 19 20 21 24 30 39 47 54 62 69 74 79 83 87 90 93 95 97 97 98 98 98 98 99 100 100 99 100 99 98 95 90 86
20 20 21 24 29 34 38 39 36 34 32 33 38 46 56 67 76 84 90 94 96 97 99 100 99 99 99 99 100 100 100 100 100 100 100 99 100 100 100 100 99 97
31 34 36 38 40 44 48 50 49 48 47 50 55 63 73 84 91 96 99 100 100 100 100 100 100 99 99 99 100 100 99 100 100 100 100 100 100 100 99 99 100 100
40 43 47 52 56 58 62 65 68 69 72 75 79 84 90 95 98 100 100 100 100 100 100 100 100 99 99 100 100 100 99 100 99 100 100 100 100 100 100 100 99 100
45 49 54 61 67 72 76 80 84 86 89 92 94 97 99 100 100 100 100 100 100 100 100 100 100 100 100 100 100 100 100 100 99 99 100 100 99 100 100 100 99 99
50 55 61 68 73 80 84 88 92 93 94 96 97 99 100 100 100 100 100 100 99 100 100 100 100 100 100 100 100 100 100 100 100 99 99 99 99 100 100 100 100 99
60 65 70 76 80 85 89 93 97 98 98 98 98 99 100 100 100 100 100 100 100 100 100 100 100 100 100 100 99 100 100 100 100 99 100 100 99 99 99 99 100 100
72 76 79 84 88 91 94 96 99 101 101 100 100 100 99 99 100 100 100 100 100 100 100 100 100 100 100 100 100 100 100 100 100 100 100 100 100 100 100 100 100 100
81 83 86 89 93 96 99 100 101 102 101 100 100 100 100 100 100 99 100 100 100 100 100 100 100 100 100 100 100 100 100 100 100 100 100 100 100 100 100 100 100 100
84 87 89 91 94 97 100 101 102 102 101 100 100 100 101 101 100 100 100 99 100 100 100 100 100 100 100 100 100 100 100 100 100 100 100 100 100 100 99 100 100 100
85 88 90 92 93 95 98 99 100 101 101 101 101 100 101 101 101 102 101 101 100 100 100 100 99 100 100 100 100 100 100 100 100 100 100 100 100 100 100 100 100 100
88 89 90 92 93 94 97 99 99 100 100 100 101 101 101 100 100 101 102 102 102 101 101 100 99 99 99 99 100 100 100 101 100 100 100 100 100 100 99 100 100 100
92 93 93 94 94 95 96 98 99 100 100 100 100 100 100 100 101 100 100 101 102 102 102 101 100 99 98 97 95 94 97 100 101 101 101 100 100 100 100 100 100 100
96 97 98 98 98 97 97 97 98 98 99 99 100 100 99 100 100 101 100 100 101 102 102 101 100 98 98 97 93 87 87 92 97 101 102 102 101 100 101 101 101 100
96 98 99 99 99 99 98 98 97 96 96 96 96 97 97 96 96 97 98 98 99 99 100 100 100 98 97 97 95 90 82 79 84 91 97 100 102 101 102 102 101 101
89 90 92 93 93 93 92 92 91 90 89 88 88 88 88 88 88 89 90 92 93 93 94 95 96 96 95 94 93 93 87 77 74 79 85 92 97 99 98 98 98 98
79 79 79 80 80 81 80 79 79 78 78 78 78 78 78 78 78 78 79 81 83 84 85 87 88 88 90 89 88 90 88 79 72 73 78 83 88 91 92 92 92 93
78 76 74 74 75 75 74 74 73 72 72 72 72 72 72 72 72 71 71 73 74 75 77 79 80 80 82 83 82 84 84 77 70 72 76 78 79 83 86 87 86 87
81 78 77 76 76 75 73 73 73 72 72 71 70 70 70 70 70 69 69 69 69 70 71 73 74 74 75 76 76 77 77 72 68 70 73 73 73 75 79 82 82 81
82 80 79 79 79 78 76 74 73 73 72 71 70 69 68 68 67 66 66 66 65 64 65 65 65 64 65 66 67 67 68 66 64 66 67 67 67 68 70 72 74 74
69 68 66 65 65 64 62 61 60 60 59 59 59 59 59 58 57 57 56 55 54 53 53 53 52 51 51 52 53 54 56 57 57 57 58 57 57 57 58 60 61 62
49 48 47 46 46 45 45 45 45 44 44 44 43 43 43 42 42 42 41 41 40 40 40 39 39 38 38 39 39 40 42 44 46 46 46 45 44 43 44 46 47 48
45 44 43 43 42 41 41 40 40 39 38 37 36 35 35 34 34 33 33 33 33 32 32 32 31 30 30 30 30 31 31 32 34 35 35 34 33 32 32 33 34 36
38 36 35 34 33 32 32 31 31 31 30 29 29 29 28 28 28 28 28 27 27 27 27 27 26 26 26 26 25 25 25 25 26 26 26 26 26 25 24 24 25 26
Wind_Speed
54 55 55 55 56 56 56 56 57 57 57 57 58 58 59 59 59 59 59 58 57 55 54 53 52 51 50 49 48 47 46 46 46 45 45 47 48 49 50 51 50 49
54 54 54 54 55 55 55 56 56 57 57 58 58 58 58 58 58 58 58 57 56 54 53 52 51 50 48 48 47 46 45 43 41 41 43 44 45 46 47 48 48 47
51 52 52 52 52 53 54 54 55 56 56 57 57 57 57 57 56 56 55 54 53 51 50 49 48 47 45 45 45 44 43 41 39 39 41 42 41 42 43 44 45 45
49 49 50 50 51 51 51 52 53 53 54 55 56 56 55 54 53 52 51 50 49 48 47 46 46 45 43 42 42 42 42 41 40 40 40 39 39 40 41 40 41 42
47 47 48 48 49 49 49 49 50 50 51 52 52 52 50 49 48 47 46 46 46 46 45 45 44 44 42 41 41 41 41 42 42 41 41 40 40 40 39 37 37 38
45 45 45 45 46 46 46 46 45 45 46 46 46 45 45 44 43 43 42 42 43 43 43 42 42 42 41 41 41 40 41 41 41 41 41 41 42 41 39 37 37 39
44 44 43 43 42 42 41 41 40 39 39 39 39 39 39 39 40 39 39 38 39 39 39 39 39 40 40 39 40 40 40 40 40 39 40 40 41 42 40 40 41 41
43 43 42 41 40 39 38 37 35 35 34 34 35 35 35 35 36 36 36 35 35 35 36 36 37 37 37 37 37 38 38 39 38 38 38 39 39 39 39 39 40 40
41 41 40 39 38 37 36 35 34 32 32 32 32 32 32 32 32 32 32 32 32 32 32 33 34 34 34 35 35 35 36 36 36 35 35 36 35 35 35 35 37 37
39 39 38 37 36 36 35 34 33 32 31 31 30 30 30 30 30 30 30 30 30 30 30 30 31 31 32 32 33 33 33 34 34 34 33 33 33 32 31 32 32 33
37 37 37 36 36 35 34 34 33 32 31 31 30 30 30 30 30 29 30 30 30 30 29 29 29 30 30 30 31 31 32 32 33 33 33 32 32 32 31 31 31 31
35 35 35 35 35 34 34 33 32 32 31 31 30 30 30 30 30 30 29 30 30 30 30 30 30 30 30 30 30 30 30 31 31 32 32 32 32 31 31 30 30 30
35 35 34 34 34 33 33 32 32 31 31 30 30 30 29 29 29 29 29 30 30 30 31 31 31 31 31 31 31 30 30 30 30 31 31 31 31 31 30 30 30 30
35 34 34 34 34 33 33 33 32 31 31 30 30 30 30 30 30 30 30 30 30 30 31 32 32 32 32 32 33 32 31 30 30 30 31 31 32 32 31 31 31 31
35 34 34 34 34 34 33 33 33 32 32 31 31 31 31 31 31 31 31 31 31 31 32 32 33 33 33 34 35 35 33 31 30 30 31 31 31 32 33 32 33 33
36 35 35 35 35 35 34 34 34 34 34 34 33 34 33 33 33 33 33 33 33 33 33 34 34 35 35 35 36 37 36 33 31 31 31 31 32 33 33 33 34 34
37 37 37 37 37 37 37 37 37 37 37 37 37 36 36 36 36 36 36 36 35 35 35 35 36 36 37 37 37 39 40 37 34 32 32 32 33 34 34 35 35 35
39 39 39 39 39 39 39 39 39 39 40 40 40 40 39 39 39 38 38 38 38 37 37 37 37 37 38 39 39 40 42 42 37 34 33 33 33 34 35 36 36 36
41 42 42 41 42 42 42 42 42 42 42 42 42 42 42 42 41 41 40 40 39 39 39 39 39 39 39 40 40 40 43 45 41 36 34 35 35 35 36 37 37 36
45 45 45 45 45 45 45 45 45 45 45 45 45 44 44 44 43 43 42 42 41 41 41 41 41 41 41 41 42 42 43 47 45 40 37 37 37 37 37 38 39 38
49 49 48 48 48 48 48 47 47 47 47 47 46 46 46 45 45 44 44 43 42 42 42 41 41 43 42 42 43 43 44 47 47 43 40 39 38 38 38 39 40 40
50 50 49 49 48 48 48 48 48 48 48 48 47 47 47 46 46 46 45 44 44 43 43 42 42 43 44 44 44 44 45 47 48 46 44 42 40 39 40 40 41 42
50 50 50 49 49 49 49 48 48 48 48 48 48 48 48 47 47 47 46 46 46 45 44 44 42 42 44 44 44 45 47 47 48 48 46 44 42 41 41 41 42 43
48 48 48 47 47 47 47 47 46 46 46 46 46 46 46 46 47 47 46 46 46 46 45 45 43 42 43 44 44 45 47 48 49 49 48 47 44 42 42 43 43 43
46 46 45 45 45 44 44 44 44 44 44 43 43 43 43 43 44 44 44 44 44 44 44 44 43 42 41 43 43 44 45 47 48 49 48 48 47 43 41 42 43 44
44 44 43 43 43 43 42 42 42 42 42 41 41 40 40 40 40 41 41 41 42 42 42 42 42 41 40 40 42 42 44 46 47 47 47 48 47 44 41 40 42 43
Wind_Direction
298 298 296 295 294 293 292 290 289 287 286 284 283 282 281 281 281 281 282 281 281 280 279 278 277 276 275 275 275 275 275 275 276 276 275 275 275 275 274 272 269 264
299 298 296 295 293 292 290 288 287 286 284 283 282 281 281 280 280 280 280 280 280 280 279 279 278 278 278 278 277 277 277 276 276 274 274 276 276 275 273 271 268 263
299 297 294 292 290 289 287 285 284 283 283 283 282 282 281 280 280 280 281 281 281 281 281 280 280 279 280 280 280 280 277 273 270 268 271 275 275 274 273 271 267 262
300 297 294 291 289 287 286 285 284 283 283 284 283 283 283 282 282 282 282 283 283 283 282 281 280 279 278 277 277 277 274 268 263 262 266 269 270 270 271 269 265 260
301 299 296 294 291 289 288 287 286 286 286 286 285 285 284 284 283 282 282 282 281 281 280 279 278 276 274 272 270 269 265 261 259 259 262 266 266 264 262 258 256 256
302 301 299 297 295 293 291 290 289 289 288 288 287 287 285 284 283 281 280 279 278 277 276 275 274 272 270 268 265 262 259 256 255 257 261 265 263 257 251 249 251 252
302 301 301 299 298 296 294 293 292 292 291 290 289 288 287 285 283 282 280 279 278 276 275 274 272 271 269 266 264 262 260 258 257 256 258 259 256 251 248 249 250 249
301 300 300 299 299 298 298 297 296 295 294 292 291 290 288 287 285 284 282 281 279 278 276 275 273 271 270 268 266 264 262 261 259 257 255 252 249 247 248 249 247 243
300 299 298 298 298 299 299 299 298 297 296 294 292 291 290 288 286 285 283 282 280 279 277 276 274 272 270 269 267 265 263 261 259 257 254 251 249 247 247 247 245 243
300 299 298 298 298 298 298 298 298 297 297 295 294 292 291 289 288 286 285 283 281 279 277 276 274 272 270 268 267 265 263 261 259 257 255 254 253 251 249 249 248 249
300 299 298 298 298 298 298 298 298 297 296 296 294 293 292 291 289 288 287 285 283 281 278 277 275 274 272 269 267 266 265 263 261 260 259 258 258 257 256 254 254 254
300 299 298 297 297 298 298 298 298 297 297 296 295 294 293 292 290 289 288 287 286 284 281 279 277 276 274 272 270 268 266 266 265 264 263 262 262 261 261 259 257 257
300 299 298 297 297 297 297 298 297 297 297 296 296 295 294 293 292 291 290 288 287 286 284 282 280 278 277 275 273 271 269 268 268 267 266 265 265 264 263 263 261 260
301 299 298 298 297 297 297 297 297 297 296 296 295 295 294 293 292 291 290 290 288 287 286 285 283 281 279 277 275 273 271 270 270 269 269 268 268 267 265 265 264 263
300 299 298 297 297 296 296 296 295 295 295 294 294 293 293 293 292 292 291 290 289 289 288 287 286 284 282 281 278 274 272 271 271 271 270 270 271 270 269 268 267 266
299 298 297 296 295 295 294 294 293 293 293 292 292 292 292 291 291 291 290 290 289 289 288 288 287 286 285 284 282 278 274 271 270 270 270 271 272 272 271 271 270 270
297 296 295 294 293 292 292 292 291 291 291 290 290 290 290 289 289 289 289 288 288 287 287 286 287 287 286 286 285 283 279 274 271 270 271 272 273 273 272 272 272 271
296 295 294 293 292 291 290 290 290 289 289 288 288 288 288 288 287 287 287 287 287 286 286 285 285 285 285 285 285 285 283 279 275 273 273 273 274 274 273 272 272 272
296 295 295 294 294 293 292 291 290 290 289 289 288 287 287 287 286 286 286 286 286 286 286 285 284 283 283 283 283 283 283 281 279 277 276 276 275 275 274 274 273 272
297 296 295 295 295 294 293 293 292 291 291 290 289 289 288 287 287 286 286 285 285 285 285 285 285 284 283 282 282 282 281 280 280 280 279 277 276 275 275 275 274 273
298 297 296 296 295 294 294 294 293 293 292 291 290 290 289 289 288 287 286 286 285 284 284 284 285 284 283 282 281 281 280 280 280 281 280 277 276 276 275 275 275 274
297 297 297 296 296 295 295 294 293 293 292 292 291 291 290 290 289 289 288 287 286 285 284 284 284 284 283 282 282 281 280 279 279 280 280 278 277 276 275 275 275 274
297 297 297 296 296 296 295 295 294 293 292 292 291 290 290 290 289 289 289 288 288 287 286 284 284 284 283 282 282 281 280 279 278 279 279 278 277 276 275 275 274 275
299 299 299 298 298 297 297 296 296 295 294 293 291 290 289 289 289 288 288 288 288 287 287 286 285 284 283 282 281 281 280 279 278 278 278 279 278 277 276 275 274 274
302 302 301 301 300 299 298 298 298 297 296 296 294 293 291 290 289 288 288 288 288 288 287 287 286 285 285 283 282 281 281 279 278 278 279 279 278 278 277 276 275 274
304 303 303 303 302 301 300 300 300 299 298 298 297 296 294 293 291 289 288 288 288 288 288 287 286 286 285 285 284 283 282 281 280 280 280 279 279 279 278 276 275 274